[Date Prev][Date Next][Thread Prev][Thread Next] - [Date Index][Thread Index][Author Index]
2 Line ISS Keps 5-8
- Subject: [sarex] 2 Line ISS Keps 5-8
- From: "Dave Larsen PhD" <doc@xxxxxxxxxxx>
- Date: Sat, 7 May 2005 18:56:22 -0700
ISS
1 25544U 98067A 05127.81829662 .00011440 00000-0 90723-4 0 4177
2 25544 051.6440 107.6250 0008021 092.9368 348.9731 15.71810887369336
----
Via the sarex mailing list at AMSAT.ORG courtesy of AMSAT-NA.
To unsubscribe, send "unsubscribe sarex" to Majordomo@amsat.org
AMSAT Home